| time (UTC) | temp F | wind direction | speed MPH | gust MPH | rain 1hr in | rain 24hr in | rain mn in | humidity % | barometer mb |
| 20260902193013 | 94 | 110 | 9.0 | 0.0 | 0.00 | 0.00 | 0.00 | 37 | 1010.3 |
| 20260902192723 | 95 | 137 | 4.0 | 0.0 | 0.00 | 0.00 | 0.00 | 36 | 1010.3 |
| 20260902192019 | 95 | 160 | 9.0 | 0.0 | 0.00 | 0.00 | 0.00 | 37 | 1010.3 |
| 20260902191522 | 94 | 111 | 4.0 | 0.0 | 0.00 | 0.00 | 0.00 | 37 | 1010.3 |
| 20260902191025 | 94 | 53 | 13.0 | 0.0 | 0.00 | 0.00 | 0.00 | 38 | 1010.6 |
| 20260902190735 | 94 | 201 | 4.0 | 0.0 | 0.00 | 0.00 | 0.00 | 38 | 1011.0 |
| 20260902190031 | 93 | 139 | 4.0 | 0.0 | 0.00 | 0.00 | 0.00 | 40 | 1011.0 |
| 20260902185507 | 92 | 92 | 18.0 | 0.0 | 0.00 | 0.00 | 0.00 | 39 | 1011.0 |
| 20260902185010 | 94 | 126 | 4.0 | 0.0 | 0.00 | 0.00 | 0.00 | 40 | 1011.0 |
| 20260902184513 | 92 | 100 | 9.0 | 0.0 | 0.00 | 0.00 | 0.00 | 42 | 1011.3 |
| 20260902184016 | 92 | 68 | 9.0 | 0.0 | 0.00 | 0.00 | 0.00 | 41 | 1011.3 |
| 20260902183519 | 93 | 146 | 23.0 | 0.0 | 0.00 | 0.00 | 0.00 | 41 | 1011.3 |
| 20260902183022 | 92 | 150 | 9.0 | 0.0 | 0.00 | 0.00 | 0.00 | 43 | 1011.3 |
| 20260902182733 | 92 | 88 | 13.0 | 0.0 | 0.00 | 0.00 | 0.00 | 40 | 1011.3 |
| 20260902182028 | 92 | 20 | 9.0 | 0.0 | 0.00 | 0.00 | 0.00 | 42 | 1011.3 |
| 20260902181531 | 92 | 37 | 9.0 | 0.0 | 0.00 | 0.00 | 0.00 | 43 | 1011.6 |
| 20260902181215 | 92 | 158 | 4.0 | 0.0 | 0.00 | 0.00 | 0.00 | 42 | 1011.6 |
| 20260902180507 | 92 | 131 | 18.0 | 0.0 | 0.00 | 0.00 | 0.00 | 41 | 1011.6 |
| 20260902180013 | 92 | 150 | 4.0 | 0.0 | 0.00 | 0.00 | 0.00 | 44 | 1012.0 |
| 20260902175505 | 91 | 156 | 13.0 | 0.0 | 0.00 | 0.00 | 0.00 | 42 | 1012.0 |
| 20260902175005 | 92 | 33 | 13.0 | 0.0 | 0.00 | 0.00 | 0.00 | 43 | 1012.0 |
| 20260902174505 | 92 | 99 | 13.0 | 0.0 | 0.00 | 0.00 | 0.00 | 44 | 1012.3 |
| 20260902174005 | 91 | 154 | 23.0 | 0.0 | 0.00 | 0.00 | 0.00 | 45 | 1012.3 |
| 20260902173712 | 91 | 53 | 9.0 | 0.0 | 0.00 | 0.00 | 0.00 | 44 | 1012.3 |
| 20260902173005 | 90 | 79 | 13.0 | 0.0 | 0.00 | 0.00 | 0.00 | 45 | 1012.3 |
| 20260902172505 | 91 | 164 | 27.0 | 0.0 | 0.00 | 0.00 | 0.00 | 45 | 1012.3 |
| 20260902172005 | 90 | 163 | 4.0 | 0.0 | 0.00 | 0.00 | 0.00 | 47 | 1012.3 |
| 20260902171505 | 90 | 94 | 18.0 | 0.0 | 0.00 | 0.00 | 0.00 | 47 | 1012.3 |
| 20260902171005 | 90 | 238 | 4.0 | 0.0 | 0.00 | 0.00 | 0.00 | 48 | 1012.3 |
| 20260902170712 | 89 | 105 | 23.0 | 0.0 | 0.00 | 0.00 | 0.00 | 49 | 1012.7 |
| 20260902170005 | 89 | 157 | 23.0 | 0.0 | 0.00 | 0.00 | 0.00 | 49 | 1012.7 |
| 20260902165712 | 89 | 154 | 9.0 | 0.0 | 0.00 | 0.00 | 0.00 | 51 | 1012.7 |
| 20260902165005 | 90 | 172 | 4.0 | 0.0 | 0.00 | 0.00 | 0.00 | 49 | 1012.7 |
| 20260902164505 | 89 | 105 | 13.0 | 0.0 | 0.00 | 0.00 | 0.00 | 52 | 1013.0 |
| 20260902164005 | 89 | 159 | 18.0 | 0.0 | 0.00 | 0.00 | 0.00 | 52 | 1013.0 |
| 20260902163504 | 89 | 212 | 13.0 | 0.0 | 0.00 | 0.00 | 0.00 | 52 | 1013.0 |
| 20260902163005 | 88 | 139 | 13.0 | 0.0 | 0.00 | 0.00 | 0.00 | 54 | 1013.0 |
| 20260902162712 | 88 | 111 | 9.0 | 0.0 | 0.00 | 0.00 | 0.00 | 56 | 1013.3 |
| 20260902162005 | 88 | 122 | 13.0 | 0.0 | 0.00 | 0.00 | 0.00 | 55 | 1013.0 |
| 20260902161505 | 88 | 154 | 13.0 | 0.0 | 0.00 | 0.00 | 0.00 | 54 | 1013.0 |
| 20260902161005 | 88 | 215 | 13.0 | 0.0 | 0.00 | 0.00 | 0.00 | 55 | 1013.3 |
| 20260902160505 | 86 | 161 | 13.0 | 0.0 | 0.00 | 0.00 | 0.00 | 58 | 1013.3 |
| 20260902160007 | 86 | 171 | 23.0 | 0.0 | 0.00 | 0.00 | 0.00 | 58 | 1013.0 |
| 20260902155505 | 86 | 72 | 32.0 | 0.0 | 0.00 | 0.00 | 0.00 | 57 | 1013.3 |
| 20260902155005 | 87 | 119 | 18.0 | 0.0 | 0.00 | 0.00 | 0.00 | 58 | 1013.3 |
| 20260902154505 | 86 | 139 | 4.0 | 0.0 | 0.00 | 0.00 | 0.00 | 60 | 1013.0 |
| 20260902154004 | 86 | 158 | 13.0 | 0.0 | 0.00 | 0.00 | 0.00 | 60 | 1013.3 |
| 20260902153505 | 86 | 125 | 4.0 | 0.0 | 0.00 | 0.00 | 0.00 | 62 | 1013.0 |
| 20260902153005 | 85 | 148 | 27.0 | 0.0 | 0.00 | 0.00 | 0.00 | 63 | 1013.3 |
| 20260902152505 | 84 | 103 | 13.0 | 0.0 | 0.00 | 0.00 | 0.00 | 64 | 1013.0 |
| 20260902152005 | 84 | 176 | 9.0 | 0.0 | 0.00 | 0.00 | 0.00 | 65 | 1013.0 |
| 20260902151711 | 84 | 92 | 13.0 | 0.0 | 0.00 | 0.00 | 0.00 | 66 | 1013.3 |
| 20260902151005 | 84 | 127 | 4.0 | 0.0 | 0.00 | 0.00 | 0.00 | 67 | 1013.3 |
| 20260902150505 | 83 | 197 | 18.0 | 0.0 | 0.00 | 0.00 | 0.00 | 67 | 1013.0 |
| 20260902150005 | 83 | 42 | 23.0 | 0.0 | 0.00 | 0.00 | 0.00 | 68 | 1013.0 |
| 20260902145505 | 83 | 141 | 18.0 | 0.0 | 0.00 | 0.00 | 0.00 | 69 | 1013.3 |
| 20260902145005 | 83 | 166 | 18.0 | 0.0 | 0.00 | 0.00 | 0.00 | 69 | 1013.3 |
| 20260902144504 | 83 | 156 | 9.0 | 0.0 | 0.00 | 0.00 | 0.00 | 71 | 1013.0 |
| 20260902144005 | 83 | 155 | 32.0 | 0.0 | 0.00 | 0.00 | 0.00 | 71 | 1013.0 |
| 20260902143505 | 82 | 134 | 9.0 | 0.0 | 0.00 | 0.00 | 0.00 | 74 | 1013.3 |
| 20260902143005 | 82 | 57 | 4.0 | 0.0 | 0.00 | 0.00 | 0.00 | 75 | 1013.0 |
| 20260902142713 | 82 | 170 | 13.0 | 0.0 | 0.00 | 0.00 | 0.00 | 75 | 1013.0 |
| 20260902142212 | 82 | 162 | 4.0 | 0.0 | 0.00 | 0.00 | 0.00 | 76 | 1013.3 |
| 20260902141505 | 81 | 165 | 9.0 | 0.0 | 0.00 | 0.00 | 0.00 | 76 | 1013.3 |
| 20260902141212 | 82 | 192 | 18.0 | 0.0 | 0.00 | 0.00 | 0.00 | 76 | 1013.3 |
| 20260902140505 | 81 | 164 | 13.0 | 0.0 | 0.00 | 0.00 | 0.00 | 77 | 1013.0 |
| 20260902140212 | 81 | 168 | 13.0 | 0.0 | 0.00 | 0.00 | 0.00 | 78 | 1013.3 |
| 20260902135713 | 80 | 158 | 13.0 | 0.0 | 0.00 | 0.00 | 0.00 | 80 | 1013.3 |
| 20260902135005 | 80 | 194 | 13.0 | 0.0 | 0.00 | 0.00 | 0.00 | 80 | 1013.0 |
| 20260902134505 | 80 | 167 | 13.0 | 0.0 | 0.00 | 0.00 | 0.00 | 81 | 1013.3 |
| 20260902134005 | 80 | 54 | 13.0 | 0.0 | 0.00 | 0.00 | 0.00 | 81 | 1013.0 |
| 20260902133505 | 80 | 114 | 4.0 | 0.0 | 0.00 | 0.00 | 0.00 | 82 | 1013.0 |
| 20260902133005 | 80 | 139 | 13.0 | 0.0 | 0.00 | 0.00 | 0.00 | 82 | 1012.7 |
| 20260902132504 | 80 | 106 | 9.0 | 0.0 | 0.00 | 0.00 | 0.00 | 82 | 1013.0 |
| 20260902132214 | 79 | 165 | 9.0 | 0.0 | 0.00 | 0.00 | 0.00 | 83 | 1013.0 |
| 20260902131504 | 79 | 131 | 0.0 | 0.0 | 0.00 | 0.00 | 0.00 | 83 | 1013.0 |
| 20260902131005 | 79 | 143 | 4.0 | 0.0 | 0.00 | 0.00 | 0.00 | 84 | 1012.7 |
| 20260902130505 | 79 | 47 | 9.0 | 0.0 | 0.00 | 0.00 | 0.00 | 84 | 1013.0 |
| 20260902130005 | 78 | 52 | 4.0 | 0.0 | 0.00 | 0.00 | 0.00 | 84 | 1013.0 |
| 20260902125505 | 78 | 5 | 0.0 | 0.0 | 0.00 | 0.00 | 0.00 | 85 | 1012.7 |
| 20260902125005 | 78 | 104 | 0.0 | 0.0 | 0.00 | 0.00 | 0.00 | 85 | 1012.7 |
| 20260902124505 | 78 | 113 | 0.0 | 0.0 | 0.00 | 0.00 | 0.00 | 85 | 1012.3 |
| 20260902124005 | 78 | 32 | 0.0 | 0.0 | 0.00 | 0.00 | 0.00 | 85 | 1012.3 |
| 20260902123505 | 78 | 166 | 9.0 | 0.0 | 0.00 | 0.00 | 0.00 | 85 | 1012.3 |
| 20260902123213 | 78 | 89 | 4.0 | 0.0 | 0.00 | 0.00 | 0.00 | 85 | 1012.3 |
| 20260902122712 | 78 | 153 | 4.0 | 0.0 | 0.00 | 0.00 | 0.00 | 85 | 1012.3 |
| 20260902122005 | 78 | 174 | 18.0 | 0.0 | 0.00 | 0.00 | 0.00 | 85 | 1012.3 |
| 20260902121505 | 78 | 109 | 0.0 | 0.0 | 0.00 | 0.00 | 0.00 | 85 | 1012.3 |
| 20260902121005 | 78 | 131 | 4.0 | 0.0 | 0.00 | 0.00 | 0.00 | 85 | 1012.3 |
| 20260902120712 | 78 | 58 | 0.0 | 0.0 | 0.00 | 0.00 | 0.00 | 85 | 1012.3 |
| 20260902120005 | 78 | 93 | 0.0 | 0.0 | 0.00 | 0.00 | 0.00 | 84 | 1012.3 |
| 20260902115505 | 78 | 158 | 13.0 | 0.0 | 0.00 | 0.00 | 0.00 | 85 | 1012.3 |
| 20260902115005 | 78 | 124 | 4.0 | 0.0 | 0.00 | 0.00 | 0.00 | 84 | 1012.3 |
| 20260902114505 | 78 | 49 | 0.0 | 0.0 | 0.00 | 0.00 | 0.00 | 84 | 1012.3 |
| 20260902114213 | 78 | 137 | 0.0 | 0.0 | 0.00 | 0.00 | 0.00 | 84 | 1012.3 |
| 20260902113505 | 78 | 79 | 0.0 | 0.0 | 0.00 | 0.00 | 0.00 | 85 | 1012.3 |
| 20260902113005 | 78 | 151 | 4.0 | 0.0 | 0.00 | 0.00 | 0.00 | 84 | 1012.3 |
| 20260902112505 | 78 | 144 | 13.0 | 0.0 | 0.00 | 0.00 | 0.00 | 84 | 1012.3 |
| 20260902112005 | 78 | 179 | 4.0 | 0.0 | 0.00 | 0.00 | 0.00 | 84 | 1012.3 |
| 20260902111504 | 78 | 145 | 0.0 | 0.0 | 0.00 | 0.00 | 0.00 | 84 | 1012.3 |
| 20260902111213 | 78 | 106 | 0.0 | 0.0 | 0.00 | 0.00 | 0.00 | 84 | 1012.0 |
| 20260902110505 | 78 | 138 | 0.0 | 0.0 | 0.00 | 0.00 | 0.00 | 84 | 1012.3 |
| 20260902110007 | 78 | 108 | 0.0 | 0.0 | 0.00 | 0.00 | 0.00 | 84 | 1012.0 |
| 20260902105505 | 78 | 48 | 9.0 | 0.0 | 0.00 | 0.00 | 0.00 | 84 | 1012.3 |
| 20260902105005 | 78 | 114 | 4.0 | 0.0 | 0.00 | 0.00 | 0.00 | 83 | 1012.3 |
| 20260902104505 | 79 | 107 | 0.0 | 0.0 | 0.00 | 0.00 | 0.00 | 83 | 1012.3 |
| 20260902104005 | 78 | 66 | 4.0 | 0.0 | 0.00 | 0.00 | 0.00 | 83 | 1012.0 |
| 20260902103505 | 78 | 181 | 13.0 | 0.0 | 0.00 | 0.00 | 0.00 | 83 | 1012.3 |
| 20260902103004 | 78 | 152 | 4.0 | 0.0 | 0.00 | 0.00 | 0.00 | 83 | 1012.0 |
| 20260902102505 | 78 | 66 | 0.0 | 0.0 | 0.00 | 0.00 | 0.00 | 83 | 1012.3 |
| 20260902102005 | 79 | 66 | 4.0 | 0.0 | 0.00 | 0.00 | 0.00 | 83 | 1012.0 |
| 20260902101505 | 79 | 74 | 4.0 | 0.0 | 0.00 | 0.00 | 0.00 | 82 | 1012.0 |
| 20260902101005 | 79 | 139 | 4.0 | 0.0 | 0.00 | 0.00 | 0.00 | 82 | 1012.3 |
| 20260902100505 | 79 | 131 | 9.0 | 0.0 | 0.00 | 0.00 | 0.00 | 82 | 1012.3 |
| 20260902100005 | 79 | 138 | 9.0 | 0.0 | 0.00 | 0.00 | 0.00 | 82 | 1012.0 |
| 20260902095505 | 79 | 66 | 18.0 | 0.0 | 0.00 | 0.00 | 0.00 | 82 | 1012.0 |
| 20260902095005 | 79 | 77 | 4.0 | 0.0 | 0.00 | 0.00 | 0.00 | 82 | 1012.3 |
| 20260902094505 | 79 | 127 | 4.0 | 0.0 | 0.00 | 0.00 | 0.00 | 82 | 1012.0 |
| 20260902094004 | 79 | 81 | 13.0 | 0.0 | 0.00 | 0.00 | 0.00 | 82 | 1012.3 |
| 20260902093505 | 79 | 145 | 4.0 | 0.0 | 0.00 | 0.00 | 0.00 | 82 | 1012.3 |
| 20260902093005 | 79 | 100 | 9.0 | 0.0 | 0.00 | 0.00 | 0.00 | 82 | 1012.3 |
| 20260902092505 | 79 | 110 | 0.0 | 0.0 | 0.00 | 0.00 | 0.00 | 81 | 1012.3 |
| 20260902092005 | 79 | 116 | 4.0 | 0.0 | 0.00 | 0.00 | 0.00 | 81 | 1012.3 |
| 20260902091711 | 79 | 82 | 9.0 | 0.0 | 0.00 | 0.00 | 0.00 | 81 | 1012.3 |
| 20260902091005 | 79 | 176 | 18.0 | 0.0 | 0.00 | 0.00 | 0.00 | 81 | 1012.3 |
| 20260902090711 | 79 | 132 | 4.0 | 0.0 | 0.00 | 0.00 | 0.00 | 81 | 1012.3 |
| 20260902090005 | 79 | 101 | 9.0 | 0.0 | 0.00 | 0.00 | 0.00 | 81 | 1012.3 |
| 20260902085505 | 79 | 164 | 9.0 | 0.0 | 0.00 | 0.00 | 0.00 | 81 | 1012.3 |
| 20260902085005 | 79 | 198 | 13.0 | 0.0 | 0.00 | 0.00 | 0.00 | 80 | 1012.3 |
| 20260902084505 | 79 | 112 | 13.0 | 0.0 | 0.00 | 0.00 | 0.00 | 80 | 1012.3 |
| 20260902084005 | 79 | 160 | 13.0 | 0.0 | 0.00 | 0.00 | 0.00 | 80 | 1012.3 |
| 20260902083505 | 79 | 192 | 9.0 | 0.0 | 0.00 | 0.00 | 0.00 | 80 | 1012.3 |
| 20260902083005 | 79 | 144 | 4.0 | 0.0 | 0.00 | 0.00 | 0.00 | 80 | 1012.3 |
| 20260902082505 | 79 | 136 | 4.0 | 0.0 | 0.00 | 0.00 | 0.00 | 80 | 1012.3 |
| 20260902081005 | 80 | 141 | 9.0 | 0.0 | 0.00 | 0.00 | 0.00 | 80 | 1012.3 |
| 20260902080713 | 80 | 127 | 13.0 | 0.0 | 0.00 | 0.00 | 0.00 | 80 | 1012.3 |
| 20260902080004 | 79 | 170 | 9.0 | 0.0 | 0.00 | 0.00 | 0.00 | 80 | 1012.3 |
| 20260902075505 | 80 | 162 | 4.0 | 0.0 | 0.00 | 0.00 | 0.00 | 80 | 1012.7 |
| 20260902075005 | 80 | 175 | 13.0 | 0.0 | 0.00 | 0.00 | 0.00 | 80 | 1013.0 |
| 20260902074505 | 80 | 163 | 9.0 | 0.0 | 0.00 | 0.00 | 0.00 | 80 | 1012.7 |
| 20260902074005 | 80 | 142 | 4.0 | 0.0 | 0.00 | 0.00 | 0.00 | 80 | 1012.7 |
| 20260902073505 | 80 | 144 | 13.0 | 0.0 | 0.00 | 0.00 | 0.00 | 80 | 1012.7 |
| 20260902073005 | 80 | 331 | 9.0 | 0.0 | 0.00 | 0.00 | 0.00 | 80 | 1012.7 |
| 20260902072505 | 80 | 167 | 9.0 | 0.0 | 0.00 | 0.00 | 0.00 | 80 | 1013.0 |
| 20260902072005 | 80 | 48 | 4.0 | 0.0 | 0.00 | 0.00 | 0.00 | 80 | 1013.0 |
| 20260902071712 | 80 | 134 | 4.0 | 0.0 | 0.00 | 0.00 | 0.00 | 80 | 1013.0 |
| 20260902071211 | 80 | 141 | 4.0 | 0.0 | 0.00 | 0.00 | 0.00 | 80 | 1013.0 |
| 20260902070505 | 80 | 8 | 18.0 | 0.0 | 0.00 | 0.00 | 0.00 | 80 | 1013.0 |
| 20260902070006 | 80 | 80 | 4.0 | 0.0 | 0.00 | 0.00 | 0.00 | 79 | 1013.0 |
| 20260902065505 | 80 | 93 | 4.0 | 0.0 | 0.00 | 0.00 | 0.00 | 79 | 1013.0 |
| 20260902065005 | 80 | 69 | 9.0 | 0.0 | 0.00 | 0.00 | 0.00 | 80 | 1013.0 |
| 20260902064505 | 80 | 138 | 9.0 | 0.0 | 0.00 | 0.00 | 0.00 | 79 | 1013.3 |
| 20260902064213 | 80 | 158 | 4.0 | 0.0 | 0.00 | 0.00 | 0.00 | 79 | 1013.3 |
| 20260902063505 | 80 | 149 | 13.0 | 0.0 | 0.00 | 0.00 | 0.00 | 79 | 1013.3 |
| 20260902063005 | 80 | 135 | 4.0 | 0.0 | 0.00 | 0.00 | 0.00 | 79 | 1013.3 |
| 20260902062505 | 80 | 108 | 4.0 | 0.0 | 0.00 | 0.00 | 0.00 | 79 | 1013.0 |
| 20260902062213 | 80 | 269 | 9.0 | 0.0 | 0.00 | 0.00 | 0.00 | 79 | 1013.3 |
| 20260902061004 | 80 | 133 | 4.0 | 0.0 | 0.00 | 0.00 | 0.00 | 79 | 1013.0 |
| 20260902060505 | 80 | 94 | 9.0 | 0.0 | 0.00 | 0.00 | 0.00 | 79 | 1013.0 |
| 20260902060005 | 80 | 111 | 4.0 | 0.0 | 0.00 | 0.00 | 0.00 | 79 | 1013.3 |
| 20260902055505 | 80 | 78 | 4.0 | 0.0 | 0.00 | 0.00 | 0.00 | 79 | 1013.3 |
| 20260902055005 | 80 | 138 | 0.0 | 0.0 | 0.00 | 0.00 | 0.00 | 79 | 1013.3 |
| 20260902054505 | 80 | 1 | 9.0 | 0.0 | 0.00 | 0.00 | 0.00 | 79 | 1013.3 |
| 20260902054005 | 80 | 355 | 9.0 | 0.0 | 0.00 | 0.00 | 0.00 | 79 | 1013.3 |
| 20260902053505 | 80 | 124 | 4.0 | 0.0 | 0.00 | 0.00 | 0.00 | 79 | 1013.3 |
| 20260902053005 | 80 | 147 | 4.0 | 0.0 | 0.00 | 0.00 | 0.00 | 79 | 1013.3 |
| 20260902052505 | 80 | 105 | 13.0 | 0.0 | 0.00 | 0.00 | 0.00 | 79 | 1013.3 |
| 20260902052005 | 80 | 83 | 4.0 | 0.0 | 0.00 | 0.00 | 0.00 | 79 | 1013.3 |
| 20260902051505 | 80 | 42 | 23.0 | 0.0 | 0.00 | 0.00 | 0.00 | 79 | 1013.3 |
| 20260902051005 | 80 | 204 | 9.0 | 0.0 | 0.00 | 0.00 | 0.00 | 79 | 1013.3 |
| 20260902050505 | 80 | 88 | 9.0 | 0.0 | 0.00 | 0.00 | 0.00 | 78 | 1013.3 |
| 20260902045713 | 80 | 135 | 4.0 | 0.0 | 0.00 | 0.00 | 0.00 | 78 | 1013.3 |
| 20260902045004 | 80 | 114 | 9.0 | 0.0 | 0.00 | 0.00 | 0.00 | 78 | 1013.3 |
| 20260902044505 | 80 | 117 | 13.0 | 0.0 | 0.00 | 0.00 | 0.00 | 78 | 1013.3 |
| 20260902044005 | 80 | 82 | 13.0 | 0.0 | 0.00 | 0.00 | 0.00 | 78 | 1013.3 |
| 20260902043505 | 80 | 110 | 9.0 | 0.0 | 0.00 | 0.00 | 0.00 | 78 | 1013.3 |
| 20260902043005 | 80 | 57 | 4.0 | 0.0 | 0.00 | 0.00 | 0.00 | 77 | 1013.3 |
| 20260902042505 | 80 | 162 | 18.0 | 0.0 | 0.00 | 0.00 | 0.00 | 77 | 1013.3 |
| 20260902042005 | 80 | 189 | 27.0 | 0.0 | 0.00 | 0.00 | 0.00 | 77 | 1013.3 |
| 20260902041505 | 80 | 124 | 0.0 | 0.0 | 0.00 | 0.00 | 0.00 | 76 | 1013.3 |
| 20260902041005 | 80 | 156 | 4.0 | 0.0 | 0.00 | 0.00 | 0.00 | 76 | 1013.3 |
| 20260902040504 | 80 | 73 | 9.0 | 0.0 | 0.00 | 0.00 | 0.00 | 76 | 1013.3 |
| 20260902040005 | 80 | 70 | 13.0 | 0.0 | 0.00 | 0.00 | 0.00 | 76 | 1013.0 |
| 20260902035505 | 80 | 56 | 9.0 | 0.0 | 0.00 | 0.00 | 0.00 | 76 | 1013.0 |
| 20260902035005 | 80 | 23 | 9.0 | 0.0 | 0.00 | 0.00 | 0.00 | 76 | 1013.0 |
| 20260902034505 | 80 | 148 | 9.0 | 0.0 | 0.00 | 0.00 | 0.00 | 76 | 1012.7 |
| 20260902034212 | 80 | 58 | 13.0 | 0.0 | 0.00 | 0.00 | 0.00 | 76 | 1013.3 |
| 20260902033505 | 81 | 191 | 13.0 | 0.0 | 0.00 | 0.00 | 0.00 | 75 | 1012.7 |
| 20260902033005 | 81 | 123 | 4.0 | 0.0 | 0.00 | 0.00 | 0.00 | 75 | 1013.0 |
| 20260902032505 | 81 | 57 | 13.0 | 0.0 | 0.00 | 0.00 | 0.00 | 74 | 1012.7 |
| 20260902032005 | 81 | 103 | 23.0 | 0.0 | 0.00 | 0.00 | 0.00 | 74 | 1012.7 |
| 20260902031505 | 81 | 71 | 4.0 | 0.0 | 0.00 | 0.00 | 0.00 | 74 | 1012.7 |
| 20260902031005 | 81 | 52 | 4.0 | 0.0 | 0.00 | 0.00 | 0.00 | 74 | 1012.3 |
| 20260902030505 | 81 | 41 | 4.0 | 0.0 | 0.00 | 0.00 | 0.00 | 73 | 1012.3 |
| 20260902030004 | 81 | 95 | 18.0 | 0.0 | 0.00 | 0.00 | 0.00 | 73 | 1012.3 |
| 20260902025505 | 81 | 69 | 23.0 | 0.0 | 0.00 | 0.00 | 0.00 | 72 | 1012.3 |
| 20260902025005 | 82 | 133 | 18.0 | 0.0 | 0.00 | 0.00 | 0.00 | 72 | 1012.3 |
| 20260902024505 | 82 | 184 | 9.0 | 0.0 | 0.00 | 0.00 | 0.00 | 71 | 1011.6 |
| 20260902024005 | 82 | 87 | 9.0 | 0.0 | 0.00 | 0.00 | 0.00 | 71 | 1011.6 |
| 20260902023505 | 82 | 195 | 13.0 | 0.0 | 0.00 | 0.00 | 0.00 | 70 | 1011.6 |
| 20260902023005 | 82 | 74 | 9.0 | 0.0 | 0.00 | 0.00 | 0.00 | 70 | 1011.6 |
| 20260902022505 | 83 | 28 | 13.0 | 0.0 | 0.00 | 0.00 | 0.00 | 69 | 1011.6 |
| 20260902022005 | 83 | 62 | 9.0 | 0.0 | 0.00 | 0.00 | 0.00 | 68 | 1011.6 |
| 20260902021505 | 83 | 62 | 18.0 | 0.0 | 0.00 | 0.00 | 0.00 | 67 | 1011.3 |
| 20260902021005 | 83 | 16 | 4.0 | 0.0 | 0.00 | 0.00 | 0.00 | 66 | 1011.3 |
| 20260902020505 | 83 | 67 | 13.0 | 0.0 | 0.00 | 0.00 | 0.00 | 64 | 1011.0 |
| 20260902020005 | 83 | 125 | 4.0 | 0.0 | 0.00 | 0.00 | 0.00 | 63 | 1011.3 |
| 20260902015505 | 83 | 24 | 9.0 | 0.0 | 0.00 | 0.00 | 0.00 | 63 | 1011.0 |
| 20260902015005 | 83 | 230 | 13.0 | 0.0 | 0.00 | 0.00 | 0.00 | 62 | 1011.0 |
| 20260902014504 | 84 | 36 | 13.0 | 0.0 | 0.00 | 0.00 | 0.00 | 61 | 1010.6 |
| 20260902014005 | 84 | 135 | 4.0 | 0.0 | 0.00 | 0.00 | 0.00 | 59 | 1010.6 |
| 20260902013505 | 84 | 26 | 13.0 | 0.0 | 0.00 | 0.00 | 0.00 | 59 | 1010.6 |
| 20260902013005 | 85 | 62 | 13.0 | 0.0 | 0.00 | 0.00 | 0.00 | 58 | 1010.3 |
| 20260902012505 | 85 | 61 | 23.0 | 0.0 | 0.00 | 0.00 | 0.00 | 56 | 1010.6 |
| 20260902012005 | 85 | 62 | 4.0 | 0.0 | 0.00 | 0.00 | 0.00 | 56 | 1010.6 |
| 20260902011505 | 85 | 148 | 9.0 | 0.0 | 0.00 | 0.00 | 0.00 | 54 | 1010.6 |
| 20260902011005 | 86 | 84 | 9.0 | 0.0 | 0.00 | 0.00 | 0.00 | 53 | 1010.3 |
| 20260902010712 | 86 | 68 | 4.0 | 0.0 | 0.00 | 0.00 | 0.00 | 53 | 1010.3 |
| 20260902010005 | 86 | 85 | 27.0 | 0.0 | 0.00 | 0.00 | 0.00 | 52 | 1010.3 |
| 20260902005505 | 86 | 108 | 9.0 | 0.0 | 0.00 | 0.00 | 0.00 | 51 | 1010.3 |
| 20260902005005 | 86 | 112 | 9.0 | 0.0 | 0.00 | 0.00 | 0.00 | 51 | 1009.9 |
| 20260902004505 | 86 | 76 | 9.0 | 0.0 | 0.00 | 0.00 | 0.00 | 50 | 1009.9 |
| 20260902004213 | 86 | 75 | 13.0 | 0.0 | 0.00 | 0.00 | 0.00 | 49 | 1009.9 |
| 20260902003712 | 87 | 72 | 13.0 | 0.0 | 0.00 | 0.00 | 0.00 | 48 | 1009.9 |
| 20260902003213 | 87 | 147 | 23.0 | 0.0 | 0.00 | 0.00 | 0.00 | 46 | 1009.6 |
| 20260902002505 | 88 | 69 | 4.0 | 0.0 | 0.00 | 0.00 | 0.00 | 44 | 1009.6 |
| 20260902002213 | 88 | 54 | 9.0 | 0.0 | 0.00 | 0.00 | 0.00 | 44 | 1009.6 |
| 20260902001505 | 88 | 40 | 13.0 | 0.0 | 0.00 | 0.00 | 0.00 | 44 | 1009.6 |
| 20260902001005 | 88 | 43 | 9.0 | 0.0 | 0.00 | 0.00 | 0.00 | 43 | 1009.6 |
| 20260902000711 | 89 | 64 | 9.0 | 0.0 | 0.00 | 0.00 | 0.00 | 41 | 1009.6 |
| 20260902000213 | 89 | 88 | 13.0 | 0.0 | 0.00 | 0.00 | 0.00 | 40 | 1009.3 |
| 20260901235505 | 89 | 59 | 9.0 | 0.0 | 0.00 | 0.00 | 0.00 | 39 | 1009.3 |
| 20260901235005 | 89 | 108 | 9.0 | 0.0 | 0.00 | 0.00 | 0.00 | 39 | 1009.3 |
| 20260901234505 | 89 | 64 | 18.0 | 0.0 | 0.00 | 0.00 | 0.00 | 38 | 1009.3 |
| 20260901234005 | 89 | 74 | 13.0 | 0.0 | 0.00 | 0.00 | 0.00 | 38 | 1009.3 |
| 20260901233713 | 90 | 122 | 9.0 | 0.0 | 0.00 | 0.00 | 0.00 | 38 | 1009.3 |
| 20260901233213 | 90 | 138 | 9.0 | 0.0 | 0.00 | 0.00 | 0.00 | 38 | 1008.9 |
| 20260901232505 | 91 | 76 | 4.0 | 0.0 | 0.00 | 0.00 | 0.00 | 37 | 1009.3 |
| 20260901232005 | 91 | 191 | 9.0 | 0.0 | 0.00 | 0.00 | 0.00 | 37 | 1008.9 |
| 20260901231505 | 91 | 42 | 18.0 | 0.0 | 0.00 | 0.00 | 0.00 | 37 | 1009.3 |
| 20260901231005 | 92 | 100 | 18.0 | 0.0 | 0.00 | 0.00 | 0.00 | 37 | 1008.9 |
| 20260901230505 | 92 | 21 | 4.0 | 0.0 | 0.00 | 0.00 | 0.00 | 37 | 1009.3 |
| 20260901230212 | 92 | 137 | 9.0 | 0.0 | 0.00 | 0.00 | 0.00 | 37 | 1008.9 |
| 20260901225505 | 92 | 81 | 13.0 | 0.0 | 0.00 | 0.00 | 0.00 | 36 | 1008.9 |
| 20260901225004 | 92 | 75 | 13.0 | 0.0 | 0.00 | 0.00 | 0.00 | 36 | 1008.9 |
| 20260901224505 | 92 | 24 | 13.0 | 0.0 | 0.00 | 0.00 | 0.00 | 37 | 1008.9 |
| 20260901224005 | 92 | 65 | 9.0 | 0.0 | 0.00 | 0.00 | 0.00 | 36 | 1008.9 |
| 20260901223505 | 92 | 114 | 18.0 | 0.0 | 0.00 | 0.00 | 0.00 | 37 | 1008.9 |
| 20260901223006 | 93 | 128 | 13.0 | 0.0 | 0.00 | 0.00 | 0.00 | 36 | 1008.9 |
| 20260901222505 | 92 | 149 | 4.0 | 0.0 | 0.00 | 0.00 | 0.00 | 35 | 1008.9 |
| 20260901222005 | 93 | 149 | 13.0 | 0.0 | 0.00 | 0.00 | 0.00 | 35 | 1008.9 |
| 20260901221505 | 93 | 137 | 9.0 | 0.0 | 0.00 | 0.00 | 0.00 | 35 | 1008.9 |
| 20260901221005 | 93 | 113 | 18.0 | 0.0 | 0.00 | 0.00 | 0.00 | 35 | 1008.9 |
| 20260901220505 | 93 | 58 | 9.0 | 0.0 | 0.00 | 0.00 | 0.00 | 35 | 1009.3 |
| 20260901220005 | 94 | 41 | 4.0 | 0.0 | 0.00 | 0.00 | 0.00 | 34 | 1008.9 |
| 20260901215713 | 93 | 174 | 9.0 | 0.0 | 0.00 | 0.00 | 0.00 | 34 | 1009.3 |
| 20260901215005 | 93 | 86 | 13.0 | 0.0 | 0.00 | 0.00 | 0.00 | 34 | 1008.9 |
| 20260901214505 | 93 | 149 | 23.0 | 0.0 | 0.00 | 0.00 | 0.00 | 33 | 1008.9 |
| 20260901214005 | 93 | 158 | 9.0 | 0.0 | 0.00 | 0.00 | 0.00 | 37 | 1008.9 |
| 20260901213505 | 93 | 53 | 13.0 | 0.0 | 0.00 | 0.00 | 0.00 | 34 | 1009.3 |
| 20260901213005 | 94 | 110 | 18.0 | 0.0 | 0.00 | 0.00 | 0.00 | 33 | 1009.3 |
| 20260901212712 | 94 | 78 | 13.0 | 0.0 | 0.00 | 0.00 | 0.00 | 32 | 1008.9 |
| 20260901212005 | 95 | 50 | 9.0 | 0.0 | 0.00 | 0.00 | 0.00 | 32 | 1009.3 |
| 20260901211712 | 95 | 125 | 4.0 | 0.0 | 0.00 | 0.00 | 0.00 | 32 | 1008.9 |
| 20260901211212 | 95 | 102 | 18.0 | 0.0 | 0.00 | 0.00 | 0.00 | 31 | 1009.3 |
| 20260901210505 | 95 | 11 | 4.0 | 0.0 | 0.00 | 0.00 | 0.00 | 30 | 1009.6 |
| 20260901210005 | 95 | 133 | 4.0 | 0.0 | 0.00 | 0.00 | 0.00 | 30 | 1009.6 |
| 20260901205505 | 95 | 164 | 23.0 | 0.0 | 0.00 | 0.00 | 0.00 | 30 | 1009.6 |
| 20260901205005 | 94 | 191 | 18.0 | 0.0 | 0.00 | 0.00 | 0.00 | 32 | 1009.6 |
| 20260901204505 | 93 | 149 | 9.0 | 0.0 | 0.00 | 0.00 | 0.00 | 32 | 1009.6 |
| 20260901204213 | 94 | 35 | 9.0 | 0.0 | 0.00 | 0.00 | 0.00 | 32 | 1009.9 |
| 20260901203505 | 93 | 172 | 4.0 | 0.0 | 0.00 | 0.00 | 0.00 | 32 | 1009.6 |
| 20260901203004 | 94 | 84 | 23.0 | 0.0 | 0.00 | 0.00 | 0.00 | 32 | 1010.3 |
| 20260901202505 | 93 | 125 | 9.0 | 0.0 | 0.00 | 0.00 | 0.00 | 34 | 1010.3 |
| 20260901202005 | 93 | 134 | 13.0 | 0.0 | 0.00 | 0.00 | 0.00 | 34 | 1010.3 |
| 20260901201505 | 95 | 40 | 4.0 | 0.0 | 0.00 | 0.00 | 0.00 | 33 | 1009.9 |
| 20260901201005 | 93 | 114 | 4.0 | 0.0 | 0.00 | 0.00 | 0.00 | 35 | 1010.3 |
| 20260901200505 | 94 | 92 | 9.0 | 0.0 | 0.00 | 0.00 | 0.00 | 35 | 1010.6 |
| 20260901200211 | 93 | 39 | 9.0 | 0.0 | 0.00 | 0.00 | 0.00 | 35 | 1010.6 |
| 20260901195505 | 94 | 101 | 9.0 | 0.0 | 0.00 | 0.00 | 0.00 | 35 | 1010.6 |
| 20260901195005 | 94 | 42 | 13.0 | 0.0 | 0.00 | 0.00 | 0.00 | 34 | 1010.6 |
| 20260901194712 | 93 | 139 | 9.0 | 0.0 | 0.00 | 0.00 | 0.00 | 37 | 1011.0 |
| 20260901194005 | 93 | 31 | 18.0 | 0.0 | 0.00 | 0.00 | 0.00 | 37 | 1011.0 |
| 20260901193505 | 93 | 310 | 13.0 | 0.0 | 0.00 | 0.00 | 0.00 | 36 | 1011.0 |